Regional Weather Roundup
Issued by NWS

Home | Current Version | Previous Version | Text Only | Print | Product List | Glossary Off
Versions: 1 2 3 4 5 6 7 8 9 10 11 12 13 14 15 16 17 18 19 20 21 22 23 24 25 26 27 28 29 30 31 32 33 34 35 36 37 38 39 40 41 42 43 44 45 46 47 48 49 50

457
ASUS43 KMKX 040000
RWRWI

WISCONSIN REGIONAL WEATHER ROUNDUP
NATIONAL WEATHER SERVICE MILWAUKEE/SULLIVAN WI
600 PM CST SAT DEC 03 2016

NOTE: "FAIR" INDICATES FEW OR NO CLOUDS BELOW 12,000 FEET WITH NO
SIGNIFICANT WEATHER AND/OR OBSTRUCTIONS TO VISIBILITY.

WIZ001-002-006>008-014>016-023>028-040100-
NORTHWEST WISCONSIN

CITY           SKY/WX    TMP DP  RH WIND       PRES   REMARKS
SUPERIOR ARPT  CLOUDY    31  22  69 S3        30.23F
6HR MIN TEMP:  30; 6HR MAX TEMP:  32;

ASHLAND        CLOUDY    31  25  78 S3        30.24S
6HR MIN TEMP:  30; 6HR MAX TEMP:  32;

HAYWARD        CLOUDY    29  20  69 S8        30.22S WCI  21
6HR MIN TEMP:  29; 6HR MAX TEMP:  30;

SIREN          CLOUDY    30  21  68 S10       30.23S WCI  21
CUMBERLAND     CLOUDY    28  21  74 S8        30.23S WCI  20
RICE LAKE      CLOUDY    30  22  74 S6        30.24F WCI  24
6HR MIN TEMP:  30; 6HR MAX TEMP:  30;

CHETEK         CLOUDY    29  22  74 S6        30.24S WCI  23
LADYSMITH      CLOUDY    30  24  80 S3        30.25S
6HR MIN TEMP:  30; 6HR MAX TEMP:  31;

EAU CLAIRE     NOT AVBL
MENOMONIE      CLOUDY    31  22  71 SE5       30.25F WCI  26
6HR MIN TEMP:  31; 6HR MAX TEMP:  32;

NEW RICHMOND   CLOUDY    28  20  71 SE6       30.23F WCI  22
OSCEOLA        MOCLDY    29  22  75 SE6       30.26S WCI  23
$$

WIZ003>005-009-010-017-018-040100-
NORTH CENTRAL WISCONSIN

CITY           SKY/WX    TMP DP  RH WIND       PRES   REMARKS
MANITOWISH WTR CLOUDY    27  22  82 SW5       30.20S WCI  22
ARBOR VITAE    CLOUDY    29  25  83 S7        30.21R WCI  22
WOODRUFF       CLOUDY    29  25  83 S7        30.21R WCI  22
RHINELANDER    CLOUDY    28  21  75 SE5       30.22S WCI  23
6HR MIN TEMP:  28; 6HR MAX TEMP:  29;

EAGLE RIVER    CLOUDY    28  20  72 SW6       30.21S WCI  21
6HR MIN TEMP:  28; 6HR MAX TEMP:  29;

LAND O LAKES   CLOUDY    29  22  76 CALM      30.22S
6HR MIN TEMP:  29; 6HR MAX TEMP:  30;

PHILLIPS       CLOUDY    28  21  76 S3        30.21F
6HR MIN TEMP:  27; 6HR MAX TEMP:  28;

TOMAHAWK       CLOUDY    28  20  74 CALM      30.23F
MEDFORD        CLOUDY    28  22  79 SW3       30.22F
MERRILL        CLOUDY    29  21  73 CALM      30.25S
6HR MIN TEMP:  28; 6HR MAX TEMP:  29;

$$

WIZ029-030-035-036-043>047-040100-
CENTRAL WISCONSIN

CITY           SKY/WX    TMP DP  RH WIND       PRES   REMARKS
WAUSAU         CLOUDY    29  21  72 SW5       30.24S WCI  24
6HR MIN TEMP:  29; 6HR MAX TEMP:  30;

MOSINEE        CLOUDY    28  23  80 SW7       30.26  WCI  21
MARSHFIELD     CLOUDY    28  21  75 CALM      30.24S
6HR MIN TEMP:  28; 6HR MAX TEMP:  29;

STEVENS POINT  CLOUDY    28  21  74 CALM      30.27S
WAUPACA        CLOUDY    32  23  69 CALM      30.29R
6HR MIN TEMP:  32; 6HR MAX TEMP:  33;

WAUTOMA        CLOUDY    30  23  75 CALM      30.29S
6HR MIN TEMP:  30; 6HR MAX TEMP:  32;

WISC RAPIDS    CLOUDY    29  22  75 SE3       30.27F
6HR MIN TEMP:  29; 6HR MAX TEMP:  31;

CAMP DOUGLAS   NOT AVBL
$$

WIZ011>013-019>022-031-037>040-048>050-040100-
NORTHEAST WISCONSIN

CITY           SKY/WX    TMP DP  RH WIND       PRES   REMARKS
ANTIGO         CLOUDY    27  20  77 W3        30.24S
SHAWANO        CLOUDY    32  23  69 CALM      30.28S
6HR MIN TEMP:  32; 6HR MAX TEMP:  33;

OCONTO         CLOUDY    31  22  68 SW3       30.29R
6HR MIN TEMP:  31; 6HR MAX TEMP:  33;

STURGEON BAY   CLOUDY    31  23  72 SW7       30.28S WCI  24
6HR MIN TEMP:  31; 6HR MAX TEMP:  34;

GREEN BAY      CLOUDY    33  25  72 SW3       30.28S
6HR MIN TEMP:  33; 6HR MAX TEMP:  33;

MANITOWOC      NOT AVBL
APPLETON       CLOUDY    30  21  69 VRB5      30.26S WCI  25
CLINTONVILLE   CLOUDY    32  23  69 CALM      30.27F
OSHKOSH        CLOUDY    31  22  69 CALM      30.28F
6HR MIN TEMP:  30; 6HR MAX TEMP:  32;

$$

WIZ032>034-041-042-053>061-040100-
SOUTHWEST WISCONSIN

CITY           SKY/WX    TMP DP  RH WIND       PRES   REMARKS
LA CROSSE      CLOUDY    34  25  69 CALM      30.27S
6HR MIN TEMP:  33; 6HR MAX TEMP:  35;

SPARTA         CLOUDY    32  25  77 CALM      30.27F
6HR MIN TEMP:  32; 6HR MAX TEMP:  33;

VIROQUA        CLOUDY    30  26  86 SE5       30.24F WCI  25
6HR MIN TEMP:  30; 6HR MAX TEMP:  31;

BOSCOBEL       CLOUDY    34  26  72 NE3       30.28F
6HR MIN TEMP:  33; 6HR MAX TEMP:  36;

PRAIRIE DU CHI CLOUDY    34  25  70 CALM      30.26F
PLATTEVILLE    CLOUDY    33  29  85 E3        30.26F
$$

WIZ056-057-062-063-064-067-068-040100-
SOUTH CENTRAL WISCONSIN

CITY           SKY/WX    TMP DP  RH WIND       PRES   REMARKS
REEDSBURG      CLOUDY    31  25  78 CALM      30.27S
6HR MIN TEMP:  31; 6HR MAX TEMP:  32;

BARABOO/DELLS  CLOUDY    31  23  72 CALM      30.26F
6HR MIN TEMP:  31; 6HR MAX TEMP:  32;

LONE ROCK      NOT AVBL
MINERAL POINT  PTCLDY    32  28  86 CALM      30.25F
MADISON        CLOUDY    32  23  69 CALM      30.27F
6HR MIN TEMP:  31; 6HR MAX TEMP:  33; 6HR PCP: TRACE;

MIDDLETON      CLOUDY    33  27  77 CALM      30.27F
6HR MIN TEMP:  33; 6HR MAX TEMP:  34;

WATERTOWN      CLOUDY    31  26  84 CALM      30.28F
6HR MIN TEMP:  30; 6HR MAX TEMP:  31;

MONROE         CLOUDY    32  27  80 CALM      30.26F
JANESVILLE     CLOUDY    34  27  75 CALM      30.28F
$$

WIZ051-052-058>065-066-070>072-040100-
SOUTHEAST WISCONSIN

CITY           SKY/WX    TMP DP  RH WIND       PRES   REMARKS
MILWAUKEE      CLOUDY    33  21  61 NW6       30.29F WCI  28
6HR MIN TEMP:  32; 6HR MAX TEMP:  34;

WAUKESHA       CLOUDY    28  21  74 CALM      30.30F
MILWAUKEE/TIMM CLOUDY    30  19  64 CALM      30.31S
RACINE         CLOUDY    32  23  69 CALM      30.31F
6HR MIN TEMP:  32; 6HR MAX TEMP:  33;

BURLINGTON     CLOUDY    31  26  82 CALM      30.29F
KENOSHA        CLOUDY    32  23  69 NW3       30.30F
6HR MIN TEMP:  31; 6HR MAX TEMP:  32;

FOND DU LAC    CLOUDY    31  19  61 W7        30.29S WCI  24
6HR MIN TEMP:  31; 6HR MAX TEMP:  33;

SHEBOYGAN      CLOUDY    31  22  69 W5        30.29S WCI  26
6HR MIN TEMP:  31; 6HR MAX TEMP:  32;

WEST BEND      CLOUDY    30  23  74 CALM      30.28F
JUNEAU         CLOUDY    30  23  76 CALM      30.29F
$$

LSZ147-162-040100-
LAKE SUPERIOR

STATION/POSITION TIME  TEMP    WIND        PRES    WAVE
                       AIR SEA DIR/SP/G            HT/PER
                 (UTC) (F)     (DEG/KT/KT) (MB)    (FT/S)
DEVILS ISLAND    2300   33     170/  4/  5 1024.7F
PORT WING        2340   32     190/  4/  5 1024.0S
SAXON HARBOR     2340   33     190/  4/  5 1024.0S
$$

LMZ867-665-643>646-040100-
LAKE MICHIGAN

STATION/POSITION TIME  TEMP    WIND        PRES    WAVE
                       AIR SEA DIR/SP/G            HT/PER
                 (UTC) (F)     (DEG/KT/KT) (MB)    (FT/S)
CHAMBERS ISLAND  2340   35     190/  2/  4 1024.4S
NORTHPORT PIER   2340   35      CALM  /  7 1024.4F
SISTER BAY       2309   35     200/  8/ 10   N/A
ALGOMA LAKESHORE 2321          240/  6/  7   N/A
KEWAUNEE LAKESHO 2330   32     260/  3/  5 1025.2S
SHEBOYGAN LAKESH 2300   32     240/  5/  6 1026.6F
PORT WASHINGTON  2340   33     260/  4/  7 1027.1S
MILWAUKEE LAKESH 2330   32     320/  4/  6   N/A
S MID LAKE BUOY  2250   35 48  270/  8/ 14 1026.5F   1/ 3
KENOSHA   LAKESH 2300   32     290/  3/  5 1026.4
$$

TC  - TEMPERATURE IN CELSIUS
VSB - VISIBILITY IN STATUTE MILES
WCI - WIND CHILL INDEX
HX  - HEAT INDEX





USA.gov is the U.S. government's official web portal to all federal, state and local government web resources and services.